Regional Weather Roundup
Issued by NWS

Home | Current Version | Previous Version | Text Only | Print | Product List | Glossary On
Versions: 1 2 3 4 5 6 7 8 9 10 11 12 13 14 15 16 17 18 19 20 21 22 23 24 25 26 27
000
ASUS45 KBOU 190407
RWRCO

WEATHER ROUNDUP FOR COLORADO
NATIONAL WEATHER SERVICE DENVER/BOULDER CO
1000 PM MDT MON SEP 18 2017

NOTE: "FAIR" INDICATES FEW OR NO CLOUDS BELOW 12000 FEET WITH NO
SIGNIFICANT WEATHER AND/OR OBSTRUCTIONS TO VISIBILITY.

COZ001>005-013-030-031-190500-
...NORTHWEST COLORADO...

CITY           SKY/WX    TMP DP  RH WIND       PRES   REMARKS
CRAIG          FAIR      55  35  47 VRB3      29.92F
HAYDEN         FAIR      58  32  37 CALM      29.97F
MEEKER         FAIR      53  37  54 NE5       29.95F
RABBIT EARS PA FAIR      46  27  46 SW9G28    30.20F
STEAMBOAT SPGS FAIR      56  35  44 E7        29.97F
WALDEN         FAIR      46  30  53 SE9       30.06F
$$

COZ006>008-011-190500-
...WEST CENTRAL VALLEYS...

CITY           SKY/WX    TMP DP  RH WIND       PRES   REMARKS
GRAND JUNCTION FAIR      62  32  32 SE7       29.89F
MONTROSE       FAIR      63  27  25 S12       30.02F
EAGLE          FAIR      59  27  29 S7        30.04S
RIFLE          FAIR      69  24  18 S10       29.94S
DELTA          FAIR      66  29  25 MISG      29.96F
NUCLA          FAIR      61  27  27 SE6       30.05F
$$

COZ017>023-064>068-190500-
...SOUTHWEST COLORADO...

CITY           SKY/WX    TMP DP  RH WIND       PRES   REMARKS
DURANGO        FAIR      53  31  42 N5        30.12S
CORTEZ         FAIR      52  33  48 E5        30.05S
PAGOSA SPRINGS FAIR      49  32  52 CALM      30.19S
TELLURIDE      FAIR      55  21  26 CALM      30.26S
WOLF CREEK PAS FAIR      41  18  38 SW21G35   30.44S
$$

COZ009-010-012-014-032>034-037-058>063-190500-
...CENTRAL COLORADO...

CITY           SKY/WX    TMP DP  RH WIND       PRES   REMARKS
ASPEN          FAIR      53  32  44 S8        30.11S
BUENA VISTA    FAIR      53  33  48 CALM      30.12S
COPPER MTN     FAIR      46  21  36 SW8G16    30.36F
BERTHOUD PASS  FAIR      39  32  75 W13G28    30.36F
COTTONWOOD PAS FAIR      57  21  24 SW10G24   30.24F
GUNNISON       FAIR      50  34  54 CALM      30.15R
KREMMLING      FAIR      59  32  36 CALM      30.06F
LEADVILLE      FAIR      45  26  47 CALM      30.22F
MONARCH PASS   FAIR      43  25  49 W33G39    30.47F
SALIDA         FAIR      61  30  30 SW8       30.17S
SUNLIGHT       FAIR      43  21  42 SW20G29   30.28F
WILKERSON PASS FAIR      45  25  45 SW12G20   30.33S
$$

COZ069>075-190500-
...SAN LUIS VALLEY/SANGRE DE CRISTO MOUNTAINS...

CITY           SKY/WX    TMP DP  RH WIND       PRES   REMARKS
ALAMOSA        FAIR      44  30  57 S7        30.15F
DEL NORTE      FAIR      55  21  26 SW12      30.18F
LA VETA PASS   FAIR      50  19  29 S15G35    30.38F
SAGUACHE       FAIR      59  27  29 N7        30.16S
$$

COZ035-036-038>040-190500-
...NORTHERN COLORADO FRONT RANGE...

CITY           SKY/WX    TMP DP  RH WIND       PRES   REMARKS
DENVER INTL AP FAIR      67  33  28 S14       29.88R
DMNS CITY PARK   N/A     64  37  35 E9        29.89S
AURORA         CLEAR     69  35  28 S20G25    29.91R
FRONT RANGE AP FAIR      68  34  28 S15G22    29.90S
ERIE MUNI ARPT FAIR      61  32  33 CALM      29.91S
BOULDER MUN AP FAIR      66  32  28 SW6       29.87F
CENTENNIAL     FAIR      68  34  28 S18       29.92R
BROOMFIELD     PTCLDY    66  30  26 W13       29.89F
FORT COLLINS   FAIR      64  34  32 N5        29.86F
LONGMONT       FAIR      65  34  32 NW8       29.88F
$$

COZ041-046-047-076>085-087-088-190500-
...PIKES PEAK/PALMER DIVIDE AND SOUTHERN FOOTHILLS...

CITY           SKY/WX    TMP DP  RH WIND       PRES   REMARKS
COLO. SPRINGS  FAIR      65  37  35 SW6       30.00S
A. F. ACADEMY  FAIR      61  35  37 E3        30.01S
SCHRIEVER AFB  FAIR      59  33  37 E7        29.99F
CHEYENNE MTN   NOT AVBL
ELLICOTT       NOT AVBL
FALCON         FAIR      57  33  39 S6        30.04F
FORT CARSON    FAIR      67  36  31 CALM      29.95F
LIMON            N/A    N/A N/A N/A MISG      29.94F
MONUMENT HILL  FAIR      59  34  38 S14       30.04S
CANON CITY     CLEAR     64  37  36 N7        29.93S
WALSENBURG     FAIR      70  21  16 SW10      30.00S
TRINIDAD       FAIR      61  36  39 SW13      30.00S
$$

COZ042>045-048>051-090-091-190500-
...NORTHEAST COLORADO...

CITY           SKY/WX    TMP DP  RH WIND       PRES   REMARKS
GREELEY ARPT   FAIR      61  38  42 E12       29.83F
AKRON          FAIR      63  38  39 SE14      29.89S
BURLINGTON     FAIR      62  47  57 SE13      29.91F
WRAY           FAIR      66  45  45 SE13      29.86F
YUMA           FAIR      61  45  55 SE9       29.87F
STERLING       FAIR      68  41  37 SE12G17   29.84S
HOLYOKE        FAIR      64  46  52 SE12      29.87S
FORT MORGAN    FAIR      63  35  36 SE8       29.87S
$$

COZ086-089-092>099-190500-
...SOUTHEAST COLORADO...

CITY           SKY/WX    TMP DP  RH WIND       PRES   REMARKS
PUEBLO         FAIR      64  33  31 E3        29.88S
LA JUNTA       FAIR      68  41  37 SE8       29.87F
LAMAR          FAIR      71  53  52 SE15      29.84F
SPRINGFIELD    NOT AVBL
$$




USA.gov is the U.S. government's official web portal to all federal, state and local government web resources and services.